Regional Weather Roundup
Issued by NWS

Home | Current Version | Previous Version | Text Only | Print | Product List | Glossary On
Versions: 1 2 3 4 5 6 7 8 9 10 11 12 13 14 15 16 17 18 19 20 21 22 23 24 25 26 27 28 29 30 31 32 33 34 35 36 37 38 39 40 41 42 43 44 45 46 47 48 49 50
000
ASUS43 KIND 180809
RWRIN

WEATHER ROUNDUP FOR INDIANA
NATIONAL WEATHER SERVICE INDIANAPOLIS IN
400 AM EDT FRI APR 18 2014

NOTE: "FAIR" INDICATES FEW OR NO CLOUDS BELOW 12,000 FEET WITH NO
SIGNIFICANT WEATHER AND/OR OBSTRUCTIONS TO VISIBILITY.

* - STATION DOES NOT REPORT WEATHER SUCH AS PRECIPITATION OR FOG.

+ - STATION NOT QUALITY CONTROLLED BY THE NATIONAL WEATHER SERVICE.
    USE DATA WITH CAUTION...ESPECIALLY DEWPOINT AND RELATIVE
    HUMIDITY OBSERVATIONS.

INZ001>003-010>013-019-020-180900-
NORTHWEST INDIANA

CITY           SKY/WX    TMP DP  RH WIND       PRES   REMARKS
GARY /AIRPORT/ CLOUDY    47  40  77 CALM      30.25S
LA PORTE +     CLOUDY    46  42  85 N5        30.24S
MICHIGAN CITY+ CLOUDY    45  37  76 CALM      30.24F
MONTICELLO +   CLOUDY    46  41  83 NW5       30.24F
RENSSELAER +   CLOUDY    46  41  81 CALM      30.25S
VALPARAISO     CLOUDY    48  41  76 N3        30.24F

$$

LMZ046-743>745-180900-
SOUTHERN LAKE MICHIGAN

STATION/POSITION TIME  TEMP WIND        PRES
                       AIR  DIR/SP/G
                 (UTC) (F)  (DEG/KT/KT) (MB)
MICHIGAN CITY    0800   48  130/  6/  6   N/A

$$

INZ004-005-014>016-021>024-180900-
NORTH CENTRAL INDIANA

CITY           SKY/WX    TMP DP  RH WIND       PRES   REMARKS
GOSHEN         CLOUDY    50  42  74 N3        30.23F
LOGANSPORT +   CLOUDY    46  37  71 CALM      30.25S
PERU/GRISSOM   CLOUDY    51  40  67 NW2       30.24S
ROCHESTER +    CLOUDY    52  41  66 NW3       30.25S
SOUTH BEND     LGT RAIN  47  41  80 E5        30.25
WARSAW +       CLOUDY    46  39  76 W3        30.24S

$$

INZ006>009-017-018-025>027-180900-
NORTHEAST INDIANA

CITY           SKY/WX    TMP DP  RH WIND       PRES   REMARKS
ANGOLA *+      PTCLDY    48  43  81 CALM      30.24S
AUBURN +       CLOUDY    48  34  57 W3        30.25R
FORT WAYNE     MOCLDY    45  35  68 W5        30.25S

$$

INZ028-029-035-036-043>045-051>053-180900-
WEST CENTRAL INDIANA

CITY           SKY/WX    TMP DP  RH WIND       PRES   REMARKS
GREENCASTLE +  PTCLDY    41  36  81 CALM      30.25S
LAFAYETTE      CLOUDY    46  40  79 CALM      30.25S
TERRE HAUTE    PTCLDY    43  38  82 CALM      30.25S

$$

INZ030>032-037>040-046>048-054>057-064-065-180900-
CENTRAL INDIANA

CITY           SKY/WX    TMP DP  RH WIND       PRES   REMARKS
CP ATTERBURY + CLEAR     37  36  93 CALM      30.25S
INDIANAPOLIS   PTCLDY    46  35  65 CALM      30.24F
-EAGLE CREEK   PTCLDY    44  38  79 NW5       30.24S
KOKOMO *+      MOCLDY    45  37  76 CALM      30.24F
MARION +       MOCLDY    43  34  70 CALM      30.25S
MT COMFORT *+  CLEAR     41  37  87 CALM      30.25S
SHELBYVILLE    CLEAR     43  37  79 E5        30.24S
ZIONSVILLE +   PTCLDY    41  34  76 CALM      30.25S

$$

INZ033-034-041-042-049-050-058-059-180900-
EAST CENTRAL INDIANA

CITY           SKY/WX    TMP DP  RH WIND       PRES   REMARKS
MUNCIE         PTCLDY    43  35  73 S3        30.24F

$$

INZ060-061-067>069-081>083-085>088-180900-
SOUTHWEST INDIANA

CITY           SKY/WX    TMP DP  RH WIND       PRES   REMARKS
EVANSVILLE     MOCLDY    48  42  80 CALM      30.26R
HUNTINGBURG *+ MOCLDY    46  37  71 CALM      30.26S
WASHINGTON +   CLEAR     43  41  94 CALM      30.25R

$$

INZ062-063-066-070>080-084-089>092-180900-
SOUTH CENTRAL AND SOUTHEAST INDIANA

CITY           SKY/WX    TMP DP  RH WIND       PRES   REMARKS
BLOOMINGTON    CLEAR     40  37  89 CALM      30.24F

$$




USA.gov is the U.S. government's official web portal to all federal, state and local government web resources and services.